Time,TemperatureF,DewpointF,PressureIn,WindDirection,WindDirectionDegrees,WindSpeedMPH,WindSpeedGustMPH,Humidity,HourlyPrecipIn,Conditions,Clouds,dailyrainin,SoftwareType,DateUTC
2013-05-01 00:02:00,56.0,31.0,29.98,NW,320,6.0,-999.0,38,-99.99,,,-99.99,,2013-05-01 05:02:00,
2013-05-01 00:11:00,56.0,31.0,29.98,NW,320,6.0,-999.0,38,-99.99,,,-99.99,,2013-05-01 05:11:00,
2013-05-01 00:21:00,55.0,31.0,30.01,NW,322,0.0,-999.0,39,-99.99,,,-99.99,,2013-05-01 05:21:00,
2013-05-01 00:32:00,55.0,31.0,30.01,NW,322,0.0,-999.0,39,-99.99,,,-99.99,,2013-05-01 05:32:00,
2013-05-01 00:42:00,54.0,30.0,30.02,WNW,302,2.0,-999.0,40,-99.99,,,-99.99,,2013-05-01 05:42:00,
2013-05-01 00:52:00,54.0,30.0,30.02,WNW,302,2.0,-999.0,40,-99.99,,,-99.99,,2013-05-01 05:52:00,
2013-05-01 01:02:00,54.0,30.0,30.02,WNW,302,2.0,-999.0,40,-99.99,,,-99.99,,2013-05-01 06:02:00,
2013-05-01 01:12:00,54.0,30.0,30.02,WNW,302,2.0,-999.0,40,-99.99,,,-99.99,,2013-05-01 06:12:00,
2013-05-01 01:22:00,53.0,31.0,30.03,NNW,328,1.0,-999.0,42,-99.99,,,-99.99,,2013-05-01 06:22:00,
2013-05-01 01:32:00,53.0,31.0,30.03,NNW,328,1.0,-999.0,42,-99.99,,,-99.99,,2013-05-01 06:32:00,
2013-05-01 01:42:00,53.0,31.0,30.03,NNW,328,1.0,-999.0,42,-99.99,,,-99.99,,2013-05-01 06:42:00,
2013-05-01 01:52:00,52.0,32.0,30.06,WNW,290,3.0,-999.0,46,-99.99,,,-99.99,,2013-05-01 06:52:00,
2013-05-01 02:01:00,52.0,32.0,30.06,WNW,290,3.0,-999.0,46,-99.99,,,-99.99,,2013-05-01 07:01:00,
2013-05-01 02:11:00,52.0,32.0,30.06,WNW,290,3.0,-999.0,46,-99.99,,,-99.99,,2013-05-01 07:11:00,
2013-05-01 02:21:00,51.0,30.0,30.09,NW,305,5.0,-999.0,44,-99.99,,,-99.99,,2013-05-01 07:21:00,
2013-05-01 02:32:00,51.0,30.0,30.09,NW,305,5.0,-999.0,44,-99.99,,,-99.99,,2013-05-01 07:32:00,
2013-05-01 02:42:00,51.0,30.0,30.09,NW,305,5.0,-999.0,44,-99.99,,,-99.99,,2013-05-01 07:42:00,
2013-05-01 02:52:00,50.0,31.0,30.11,NW,321,0.0,-999.0,47,-99.99,,,-99.99,,2013-05-01 07:52:00,
2013-05-01 03:01:00,50.0,31.0,30.11,NW,321,0.0,-999.0,47,-99.99,,,-99.99,,2013-05-01 08:01:00,
2013-05-01 03:11:00,50.0,31.0,30.11,NW,321,0.0,-999.0,47,-99.99,,,-99.99,,2013-05-01 08:11:00,
2013-05-01 03:21:00,49.0,29.0,30.11,NW,320,1.0,-999.0,46,-99.99,,,-99.99,,2013-05-01 08:21:00,
2013-05-01 03:31:00,49.0,29.0,30.11,NW,320,1.0,-999.0,46,-99.99,,,-99.99,,2013-05-01 08:31:00,
2013-05-01 03:42:00,49.0,29.0,30.11,NW,320,1.0,-999.0,46,-99.99,,,-99.99,,2013-05-01 08:42:00,
2013-05-01 03:53:00,47.0,32.0,30.12,NW,325,0.0,-999.0,56,-99.99,,,-99.99,,2013-05-01 08:53:00,
2013-05-01 04:01:00,47.0,32.0,30.12,NW,325,0.0,-999.0,56,-99.99,,,-99.99,,2013-05-01 09:01:00,
2013-05-01 04:12:00,47.0,32.0,30.12,NW,325,0.0,-999.0,56,-99.99,,,-99.99,,2013-05-01 09:12:00,
2013-05-01 04:21:00,47.0,31.0,30.12,NW,314,3.0,-999.0,54,-99.99,,,-99.99,,2013-05-01 09:21:00,
2013-05-01 04:33:00,47.0,31.0,30.12,NW,314,3.0,-999.0,54,-99.99,,,-99.99,,2013-05-01 09:33:00,
2013-05-01 04:43:00,47.0,31.0,30.12,NW,314,3.0,-999.0,54,-99.99,,,-99.99,,2013-05-01 09:43:00,
2013-05-01 04:53:00,46.0,31.0,30.15,NW,309,0.0,-999.0,56,-99.99,,,-99.99,,2013-05-01 09:53:00,
2013-05-01 05:02:00,46.0,31.0,30.15,NW,309,0.0,-999.0,56,-99.99,,,-99.99,,2013-05-01 10:02:00,
2013-05-01 05:12:00,46.0,31.0,30.15,NW,309,0.0,-999.0,56,-99.99,,,-99.99,,2013-05-01 10:12:00,
2013-05-01 05:22:00,44.0,31.0,30.13,NW,309,0.0,-999.0,59,-99.99,,,-99.99,,2013-05-01 10:22:00,
2013-05-01 05:33:00,44.0,31.0,30.13,NW,309,0.0,-999.0,59,-99.99,,,-99.99,,2013-05-01 10:33:00,
2013-05-01 05:42:00,44.0,31.0,30.13,NW,309,0.0,-999.0,59,-99.99,,,-99.99,,2013-05-01 10:42:00,
2013-05-01 05:53:00,44.0,32.0,30.18,WNW,298,6.0,-999.0,62,-99.99,,,-99.99,,2013-05-01 10:53:00,
2013-05-01 06:02:00,44.0,32.0,30.18,WNW,298,6.0,-999.0,62,-99.99,,,-99.99,,2013-05-01 11:02:00,
2013-05-01 06:11:00,44.0,32.0,30.18,WNW,298,6.0,-999.0,62,-99.99,,,-99.99,,2013-05-01 11:11:00,
2013-05-01 06:22:00,43.0,30.0,30.20,WNW,296,4.0,-999.0,61,-99.99,,,-99.99,,2013-05-01 11:22:00,
2013-05-01 06:32:00,43.0,30.0,30.20,WNW,296,4.0,-999.0,61,-99.99,,,-99.99,,2013-05-01 11:32:00,
2013-05-01 06:42:00,43.0,30.0,30.20,WNW,296,4.0,-999.0,61,-99.99,,,-99.99,,2013-05-01 11:42:00,
2013-05-01 06:52:00,42.0,30.0,30.23,NW,314,5.0,-999.0,63,-99.99,,,-99.99,,2013-05-01 11:52:00,
2013-05-01 07:01:00,42.0,30.0,30.23,NW,314,5.0,-999.0,63,-99.99,,,-99.99,,2013-05-01 12:01:00,
2013-05-01 07:11:00,41.0,30.0,30.27,NW,310,5.0,-999.0,64,-99.99,,,-99.99,,2013-05-01 12:11:00,
2013-05-01 07:21:00,41.0,30.0,30.27,NW,310,5.0,-999.0,64,-99.99,,,-99.99,,2013-05-01 12:21:00,
2013-05-01 07:31:00,41.0,30.0,30.27,NW,310,5.0,-999.0,64,-99.99,,,-99.99,,2013-05-01 12:31:00,
2013-05-01 07:42:00,41.0,30.0,30.27,NW,310,5.0,-999.0,64,-99.99,,,-99.99,,2013-05-01 12:42:00,
2013-05-01 07:52:00,40.0,29.0,30.30,WNW,301,11.0,-999.0,64,-99.99,,,-99.99,,2013-05-01 12:52:00,
2013-05-01 08:01:00,40.0,29.0,30.30,WNW,301,11.0,-999.0,64,-99.99,,,-99.99,,2013-05-01 13:01:00,
2013-05-01 08:11:00,40.0,29.0,30.30,WNW,301,11.0,-999.0,64,-99.99,,,-99.99,,2013-05-01 13:11:00,
2013-05-01 08:21:00,36.0,30.0,30.31,WNW,292,4.0,-999.0,79,-99.99,,,-99.99,,2013-05-01 13:21:00,
2013-05-01 08:31:00,36.0,30.0,30.31,WNW,292,4.0,-999.0,79,-99.99,,,-99.99,,2013-05-01 13:31:00,
2013-05-01 08:42:00,36.0,30.0,30.31,WNW,292,4.0,-999.0,79,-99.99,,,-99.99,,2013-05-01 13:42:00,
2013-05-01 08:52:00,34.0,30.0,30.34,WNW,298,5.0,-999.0,85,-99.99,,,-99.99,,2013-05-01 13:52:00,
2013-05-01 09:02:00,34.0,30.0,30.34,WNW,298,5.0,-999.0,85,-99.99,,,-99.99,,2013-05-01 14:02:00,
2013-05-01 09:11:00,34.0,30.0,30.34,WNW,298,5.0,-999.0,85,-99.99,,,-99.99,,2013-05-01 14:11:00,
2013-05-01 09:21:00,33.0,30.0,30.32,WNW,284,1.0,-999.0,87,-99.99,,,-99.99,,2013-05-01 14:21:00,
2013-05-01 09:32:00,33.0,30.0,30.32,WNW,284,1.0,-999.0,87,-99.99,,,-99.99,,2013-05-01 14:32:00,
2013-05-01 09:42:00,33.0,30.0,30.32,WNW,284,1.0,-999.0,87,-99.99,,,-99.99,,2013-05-01 14:42:00,
2013-05-01 09:52:00,33.0,30.0,30.33,WNW,284,4.0,-999.0,88,-99.99,,,-99.99,,2013-05-01 14:52:00,
2013-05-01 10:01:00,33.0,30.0,30.33,WNW,284,4.0,-999.0,88,-99.99,,,-99.99,,2013-05-01 15:01:00,
2013-05-01 10:11:00,33.0,30.0,30.33,WNW,284,4.0,-999.0,88,-99.99,,,-99.99,,2013-05-01 15:11:00,
2013-05-01 10:21:00,33.0,30.0,30.32,WNW,284,3.0,-999.0,89,-99.99,,,-99.99,,2013-05-01 15:21:00,
2013-05-01 10:33:00,33.0,30.0,30.32,WNW,284,3.0,-999.0,89,-99.99,,,-99.99,,2013-05-01 15:33:00,
2013-05-01 10:43:00,33.0,30.0,30.32,WNW,284,3.0,-999.0,89,-99.99,,,-99.99,,2013-05-01 15:43:00,
2013-05-01 10:53:00,34.0,31.0,30.33,WNW,284,1.0,-999.0,90,-99.99,,,-99.99,,2013-05-01 15:53:00,
2013-05-01 11:03:00,34.0,31.0,30.33,WNW,284,1.0,-999.0,90,-99.99,,,-99.99,,2013-05-01 16:03:00,
2013-05-01 11:12:00,34.0,31.0,30.33,WNW,284,1.0,-999.0,90,-99.99,,,-99.99,,2013-05-01 16:12:00,
2013-05-01 11:22:00,34.0,31.0,30.35,WNW,285,3.0,-999.0,90,-99.99,,,-99.99,,2013-05-01 16:22:00,
2013-05-01 11:31:00,34.0,31.0,30.35,WNW,285,3.0,-999.0,90,-99.99,,,-99.99,,2013-05-01 16:31:00,
2013-05-01 11:42:00,34.0,31.0,30.35,WNW,285,3.0,-999.0,90,-99.99,,,-99.99,,2013-05-01 16:42:00,
2013-05-01 11:53:00,35.0,32.0,30.38,NW,304,7.0,-999.0,90,-99.99,,,-99.99,,2013-05-01 16:53:00,
2013-05-01 12:02:00,35.0,32.0,30.38,NW,304,7.0,-999.0,90,-99.99,,,-99.99,,2013-05-01 17:02:00,
2013-05-01 12:12:00,35.0,32.0,30.38,NW,304,7.0,-999.0,90,-99.99,,,-99.99,,2013-05-01 17:12:00,
2013-05-01 12:21:00,36.0,31.0,30.38,NW,308,2.0,-999.0,83,-99.99,,,-99.99,,2013-05-01 17:21:00,
2013-05-01 12:31:00,36.0,31.0,30.38,NW,308,2.0,-999.0,83,-99.99,,,-99.99,,2013-05-01 17:31:00,
2013-05-01 12:42:00,36.0,29.0,30.37,NW,316,4.0,-999.0,76,-99.99,,,-99.99,,2013-05-01 17:42:00,
2013-05-01 12:52:00,36.0,29.0,30.37,NW,316,4.0,-999.0,76,-99.99,,,-99.99,,2013-05-01 17:52:00,
2013-05-01 13:01:00,36.0,29.0,30.37,NW,316,4.0,-999.0,76,-99.99,,,-99.99,,2013-05-01 18:01:00,
2013-05-01 13:11:00,36.0,29.0,30.37,NW,316,4.0,-999.0,76,-99.99,,,-99.99,,2013-05-01 18:11:00,
2013-05-01 13:22:00,37.0,29.0,30.37,WNW,296,3.0,-999.0,72,-99.99,,,-99.99,,2013-05-01 18:22:00,
2013-05-01 13:32:00,37.0,29.0,30.37,WNW,296,3.0,-999.0,72,-99.99,,,-99.99,,2013-05-01 18:32:00,
2013-05-01 13:42:00,37.0,29.0,30.37,WNW,296,3.0,-999.0,72,-99.99,,,-99.99,,2013-05-01 18:42:00,
2013-05-01 13:52:00,38.0,27.0,30.39,WNW,295,5.0,-999.0,65,-99.99,,,-99.99,,2013-05-01 18:52:00,
2013-05-01 14:02:00,38.0,27.0,30.39,WNW,295,5.0,-999.0,65,-99.99,,,-99.99,,2013-05-01 19:02:00,
2013-05-01 14:11:00,38.0,27.0,30.39,WNW,295,5.0,-999.0,65,-99.99,,,-99.99,,2013-05-01 19:11:00,
2013-05-01 14:22:00,39.0,27.0,30.40,NW,323,4.0,-999.0,62,-99.99,,,-99.99,,2013-05-01 19:22:00,
2013-05-01 14:32:00,39.0,27.0,30.40,NW,323,4.0,-999.0,62,-99.99,,,-99.99,,2013-05-01 19:32:00,
2013-05-01 14:43:00,39.0,27.0,30.40,NW,323,4.0,-999.0,62,-99.99,,,-99.99,,2013-05-01 19:43:00,
2013-05-01 14:52:00,39.0,26.0,30.40,NW,322,7.0,-999.0,59,-99.99,,,-99.99,,2013-05-01 19:52:00,
2013-05-01 15:01:00,39.0,26.0,30.40,NW,322,7.0,-999.0,59,-99.99,,,-99.99,,2013-05-01 20:01:00,
2013-05-01 15:11:00,39.0,26.0,30.40,NW,322,7.0,-999.0,59,-99.99,,,-99.99,,2013-05-01 20:11:00,
2013-05-01 15:21:00,40.0,26.0,30.40,NW,323,2.0,-999.0,57,-99.99,,,-99.99,,2013-05-01 20:21:00,
2013-05-01 15:32:00,40.0,26.0,30.40,NW,323,2.0,-999.0,57,-99.99,,,-99.99,,2013-05-01 20:32:00,
2013-05-01 15:42:00,40.0,26.0,30.40,NW,323,2.0,-999.0,57,-99.99,,,-99.99,,2013-05-01 20:42:00,
2013-05-01 15:52:00,41.0,27.0,30.40,NW,323,3.0,-999.0,56,-99.99,,,-99.99,,2013-05-01 20:52:00,
2013-05-01 16:01:00,41.0,27.0,30.40,NW,323,3.0,-999.0,56,-99.99,,,-99.99,,2013-05-01 21:01:00,
2013-05-01 16:11:00,41.0,27.0,30.40,NW,323,3.0,-999.0,56,-99.99,,,-99.99,,2013-05-01 21:11:00,
2013-05-01 16:22:00,41.0,26.0,30.42,NNW,327,6.0,-999.0,55,-99.99,,,-99.99,,2013-05-01 21:22:00,
2013-05-01 16:32:00,41.0,26.0,30.42,NNW,327,6.0,-999.0,55,-99.99,,,-99.99,,2013-05-01 21:32:00,
2013-05-01 16:43:00,42.0,27.0,30.42,NNW,331,1.0,-999.0,55,-99.99,,,-99.99,,2013-05-01 21:43:00,
2013-05-01 16:53:00,42.0,27.0,30.42,NNW,331,1.0,-999.0,55,-99.99,,,-99.99,,2013-05-01 21:53:00,
2013-05-01 17:03:00,42.0,27.0,30.42,NNW,331,1.0,-999.0,55,-99.99,,,-99.99,,2013-05-01 22:03:00,
2013-05-01 17:12:00,42.0,27.0,30.42,NNW,331,1.0,-999.0,55,-99.99,,,-99.99,,2013-05-01 22:12:00,
2013-05-01 17:23:00,42.0,27.0,30.45,NNW,345,3.0,-999.0,54,-99.99,,,-99.99,,2013-05-01 22:23:00,
2013-05-01 17:33:00,42.0,27.0,30.45,NNW,345,3.0,-999.0,54,-99.99,,,-99.99,,2013-05-01 22:33:00,
2013-05-01 17:42:00,42.0,27.0,30.45,NNW,345,3.0,-999.0,54,-99.99,,,-99.99,,2013-05-01 22:42:00,
2013-05-01 17:53:00,42.0,26.0,30.44,North,358,0.0,-999.0,52,-99.99,,,-99.99,,2013-05-01 22:53:00,
2013-05-01 18:02:00,42.0,26.0,30.44,North,358,0.0,-999.0,52,-99.99,,,-99.99,,2013-05-01 23:02:00,
2013-05-01 18:12:00,42.0,26.0,30.44,North,358,0.0,-999.0,52,-99.99,,,-99.99,,2013-05-01 23:12:00,
2013-05-01 18:21:00,42.0,26.0,30.45,North,0,1.0,-999.0,52,-99.99,,,-99.99,,2013-05-01 23:21:00,
2013-05-01 18:32:00,42.0,26.0,30.45,North,0,1.0,-999.0,52,-99.99,,,-99.99,,2013-05-01 23:32:00,
2013-05-01 18:42:00,42.0,26.0,30.45,North,0,1.0,-999.0,52,-99.99,,,-99.99,,2013-05-01 23:42:00,
2013-05-01 18:52:00,42.0,26.0,30.46,NNE,12,4.0,-999.0,53,-99.99,,,-99.99,,2013-05-01 23:52:00,
2013-05-01 19:01:00,42.0,26.0,30.46,NNE,12,4.0,-999.0,53,-99.99,,,-99.99,,2013-05-02 00:01:00,
2013-05-01 19:11:00,42.0,26.0,30.46,NNE,12,4.0,-999.0,53,-99.99,,,-99.99,,2013-05-02 00:11:00,
2013-05-01 19:21:00,42.0,27.0,30.47,NNE,12,0.0,-999.0,55,-99.99,,,-99.99,,2013-05-02 00:21:00,
2013-05-01 19:32:00,42.0,27.0,30.47,NNE,12,0.0,-999.0,55,-99.99,,,-99.99,,2013-05-02 00:32:00,
2013-05-01 19:42:00,42.0,27.0,30.47,NNE,12,0.0,-999.0,55,-99.99,,,-99.99,,2013-05-02 00:42:00,
2013-05-01 19:52:00,41.0,27.0,30.48,NNE,12,0.0,-999.0,56,-99.99,,,-99.99,,2013-05-02 00:52:00,
2013-05-01 20:01:00,41.0,27.0,30.48,NNE,12,0.0,-999.0,56,-99.99,,,-99.99,,2013-05-02 01:01:00,
2013-05-01 20:11:00,41.0,27.0,30.48,NNE,12,0.0,-999.0,56,-99.99,,,-99.99,,2013-05-02 01:11:00,
2013-05-01 20:21:00,42.0,24.0,30.48,North,356,2.0,-999.0,49,-99.99,,,-99.99,,2013-05-02 01:21:00,
2013-05-01 20:32:00,42.0,24.0,30.48,North,356,2.0,-999.0,49,-99.99,,,-99.99,,2013-05-02 01:32:00,
2013-05-01 20:42:00,42.0,24.0,30.48,North,356,2.0,-999.0,49,-99.99,,,-99.99,,2013-05-02 01:42:00,
2013-05-01 20:52:00,41.0,23.0,30.49,North,357,0.0,-999.0,49,-99.99,,,-99.99,,2013-05-02 01:52:00,
2013-05-01 21:01:00,41.0,23.0,30.49,North,357,0.0,-999.0,49,-99.99,,,-99.99,,2013-05-02 02:01:00,
2013-05-01 21:12:00,41.0,23.0,30.49,North,357,0.0,-999.0,49,-99.99,,,-99.99,,2013-05-02 02:12:00,
2013-05-01 21:21:00,41.0,23.0,30.50,North,352,8.0,-999.0,48,-99.99,,,-99.99,,2013-05-02 02:21:00,
2013-05-01 21:32:00,41.0,23.0,30.50,North,352,8.0,-999.0,48,-99.99,,,-99.99,,2013-05-02 02:32:00,
2013-05-01 21:42:00,41.0,23.0,30.50,North,352,8.0,-999.0,48,-99.99,,,-99.99,,2013-05-02 02:42:00,
2013-05-01 21:51:00,41.0,23.0,30.50,North,352,8.0,-999.0,48,-99.99,,,-99.99,,2013-05-02 02:51:00,
2013-05-01 22:01:00,41.0,23.0,30.51,North,0,0.0,-999.0,48,-99.99,,,-99.99,,2013-05-02 03:01:00,
2013-05-01 22:11:00,41.0,23.0,30.51,North,0,0.0,-999.0,48,-99.99,,,-99.99,,2013-05-02 03:11:00,
2013-05-01 22:22:00,41.0,23.0,30.50,North,8,7.0,-999.0,48,-99.99,,,-99.99,,2013-05-02 03:22:00,
2013-05-01 22:32:00,41.0,23.0,30.50,North,8,7.0,-999.0,48,-99.99,,,-99.99,,2013-05-02 03:32:00,
2013-05-01 22:43:00,41.0,23.0,30.50,North,8,7.0,-999.0,48,-99.99,,,-99.99,,2013-05-02 03:43:00,
2013-05-01 22:53:00,41.0,23.0,30.52,North,350,1.0,-999.0,48,-99.99,,,-99.99,,2013-05-02 03:53:00,
2013-05-01 23:03:00,41.0,23.0,30.52,North,350,1.0,-999.0,48,-99.99,,,-99.99,,2013-05-02 04:03:00,
2013-05-01 23:12:00,41.0,23.0,30.52,North,350,1.0,-999.0,48,-99.99,,,-99.99,,2013-05-02 04:12:00,
2013-05-01 23:23:00,41.0,23.0,30.52,North,354,4.0,-999.0,49,-99.99,,,-99.99,,2013-05-02 04:23:00,
2013-05-01 23:33:00,41.0,23.0,30.52,North,354,4.0,-999.0,49,-99.99,,,-99.99,,2013-05-02 04:33:00,
2013-05-01 23:43:00,41.0,23.0,30.52,North,354,4.0,-999.0,49,-99.99,,,-99.99,,2013-05-02 04:43:00,
2013-05-01 23:52:00,40.0,23.0,30.51,North,351,5.0,-999.0,50,-99.99,,,-99.99,,2013-05-02 04:52:00,